Location: Sternwarte_Laufen
(47.9344°N, 12.9346°E)
Time: 16:21:38
(UTC+02:00)

ISS - Pass Details

Date: 07 May 2026
Orbit: 414 x 424 km, 51.6° (Epoch: 21 May)

Event Time Altitude Azimuth Distance (km) Brightness Sun altitude
Rises 04:53:42 0° 289° (WNW) 2,364 -0.3 -7.6°
Reaches altitude 10° 04:56:00 10° 276° (W) 1,499 -1.4 -7.3°
Maximum altitude 04:58:51 26° 218° (SW) 871 -2.7 -6.9°
Drops below altitude 10° 05:01:42 10° 160° (SSE) 1,497 -1.1 -6.5°
Sets 05:04:00 0° 147° (SSE) 2,359 0.1 -6.2°
